K6OUA-11 Weather Reports


time (UTC)temp
F
wind
direction
speed
knots
gust
knots
rain 1hr
in
rain 24hr
in
rain mn
in
humidity
%
barometer
mb
20260901123209 56 281 0.0 0.0 0.00 0.00 0.00 95
20260901123007 56 281 0.0 0.0 0.00 0.00 0.00 95
20260901122805 55 281 0.0 0.0 0.00 0.00 0.00 95
20260901122603 55 281 0.0 0.0 0.00 0.00 0.00 95
20260901122401 55 281 0.0 0.0 0.00 0.00 0.00 95
20260901122159 55 281 0.0 0.0 0.00 0.00 0.00 95
20260901121959 56 281 0.0 0.0 0.00 0.00 0.00 95
20260901121756 56 281 0.0 0.0 0.00 0.00 0.00 95
20260901121554 55 281 0.0 0.0 0.00 0.00 0.00 95
20260901121352 56 281 0.0 0.0 0.00 0.00 0.00 95
20260901121150 56 281 0.0 0.0 0.00 0.00 0.00 95
20260901120948 56 281 0.0 0.0 0.00 0.00 0.00 95
20260901120746 56 281 0.0 0.0 0.00 0.00 0.00 95
20260901120544 56 281 0.0 0.0 0.00 0.00 0.00 95
20260901120342 56 281 0.0 0.0 0.00 0.00 0.00 95
20260901115737 57 281 0.0 2.6 0.00 0.00 0.00 95
20260901115333 57 281 0.0 2.6 0.00 0.00 0.00 95
20260901115131 57 281 0.0 3.5 0.00 0.00 0.00 95
20260901114929 57 298 0.9 3.5 0.00 0.00 0.00 95
20260901114727 57 305 1.7 1.7 0.00 0.00 0.00 95
20260901114525 57 282 1.7 1.7 0.00 0.00 0.00 95
20260901114323 57 296 0.9 1.7 0.00 0.00 0.00 95
20260901114121 57 296 0.0 3.5 0.00 0.00 0.00 95
20260901113920 57 296 0.0 3.5 0.00 0.00 0.00 95
20260901113718 57 298 1.7 6.1 0.00 0.00 0.00 95
20260901113516 57 293 0.9 6.1 0.00 0.00 0.00 95
20260901113314 57 309 0.0 6.1 0.00 0.00 0.00 95
20260901113112 57 288 5.2 4.3 0.00 0.00 0.00 95
20260901112910 57 302 2.6 4.3 0.00 0.00 0.00 95
20260901112708 57 303 3.5 4.3 0.00 0.00 0.00 96
20260901112506 57 303 2.6 4.3 0.00 0.00 0.00 95
20260901112306 56 312 1.7 4.3 0.00 0.00 0.00 95
20260901112102 56 319 2.6 3.5 0.00 0.00 0.00 95
20260901111900 56 293 3.5 3.5 0.00 0.00 0.00 95
20260901111659 56 293 3.5 4.3 0.00 0.00 0.00 95
20260901111457 56 285 2.6 4.3 0.00 0.00 0.00 95
20260901111255 56 277 2.6 4.3 0.00 0.00 0.00 95
20260901110851 56 298 3.5 3.5 0.00 0.00 0.00 95
20260901110649 56 302 3.5 3.5 0.00 0.00 0.00 94
20260901110447 56 285 3.5 3.5 0.00 0.00 0.00 93
20260901110245 56 289 2.6 0.0 0.00 0.00 0.00 93
20260901110043 57 278 3.5 0.0 0.00 0.00 0.00 93
20260901105841 57 26 0.0 0.0 0.00 0.00 0.00 94
20260901105641 57 26 0.0 0.0 0.00 0.00 0.00 94
20260901105236 57 26 0.0 0.0 0.00 0.00 0.00 93
20260901105034 57 26 0.0 0.0 0.00 0.00 0.00 93
20260901104832 57 26 0.0 0.0 0.00 0.00 0.00 93
20260901104630 57 26 0.0 0.0 0.00 0.00 0.00 93
20260901104428 57 26 0.0 0.0 0.00 0.00 0.00 93
20260901104228 57 26 0.0 0.0 0.00 0.00 0.00 93
20260901104024 57 26 0.0 0.0 0.00 0.00 0.00 93
20260901103822 57 26 0.0 0.0 0.00 0.00 0.00 93
20260901103622 57 26 0.0 0.0 0.00 0.00 0.00 93
20260901103419 57 26 0.0 0.0 0.00 0.00 0.00 93
20260901103217 57 26 0.0 0.0 0.00 0.00 0.00 93
20260901103015 57 26 0.0 0.0 0.00 0.00 0.00 93
20260901102813 57 26 0.0 0.0 0.00 0.00 0.00 93
20260901102611 56 26 0.0 0.9 0.00 0.00 0.00 93
20260901102409 57 26 0.0 0.9 0.00 0.00 0.00 93
20260901102207 57 26 0.0 0.0 0.00 0.00 0.00 93
20260901102005 57 49 0.0 0.0 0.00 0.00 0.00 93
20260901101803 57 64 0.0 0.0 0.00 0.00 0.00 93
20260901101400 56 64 0.0 0.0 0.00 0.00 0.00 93
20260901101158 56 64 0.0 0.9 0.00 0.00 0.00 93
20260901100956 56 64 0.0 0.9 0.00 0.00 0.00 93
20260901100754 56 64 0.0 0.9 0.00 0.00 0.00 92
20260901100554 56 64 0.0 0.0 0.00 0.00 0.00 92
20260901100350 57 300 0.0 0.0 0.00 0.00 0.00 92
20260901100148 56 300 0.0 0.0 0.00 0.00 0.00 92
20260901095946 56 300 0.0 0.0 0.00 0.00 0.00 93
20260901095744 56 300 0.0 0.0 0.00 0.00 0.00 92
20260901095544 56 300 0.0 0.0 0.00 0.00 0.00 92
20260901095341 56 300 0.0 0.0 0.00 0.00 0.00 92
20260901095139 56 300 0.0 0.0 0.00 0.00 0.00 92
20260901094937 56 300 0.0 0.0 0.00 0.00 0.00 91
20260901094735 56 300 0.0 0.0 0.00 0.00 0.00 91
20260901094533 57 300 0.0 0.0 0.00 0.00 0.00 91
20260901094331 57 300 0.0 0.0 0.00 0.00 0.00 92
20260901094129 57 300 0.0 0.0 0.00 0.00 0.00 92
20260901093927 57 300 0.0 0.0 0.00 0.00 0.00 92
20260901093725 57 300 0.0 0.0 0.00 0.00 0.00 92
20260901093523 57 300 0.0 0.0 0.00 0.00 0.00 92
20260901093324 57 300 0.0 0.0 0.00 0.00 0.00 92
20260901093120 57 300 0.0 0.0 0.00 0.00 0.00 92
20260901092918 57 300 0.0 0.0 0.00 0.00 0.00 92
20260901092716 57 300 0.0 0.0 0.00 0.00 0.00 92
20260901092514 57 300 0.0 0.0 0.00 0.00 0.00 92
20260901092312 57 300 0.0 0.0 0.00 0.00 0.00 92
20260901092110 57 300 0.0 0.0 0.00 0.00 0.00 92
20260901091909 57 300 0.0 0.0 0.00 0.00 0.00 91
20260901091706 57 300 0.0 0.0 0.00 0.00 0.00 91
20260901091302 57 300 0.0 0.0 0.00 0.00 0.00 91
20260901091101 57 300 0.0 0.0 0.00 0.00 0.00 91
20260901090859 57 300 0.0 0.0 0.00 0.00 0.00 91
20260901090657 57 300 0.0 0.0 0.00 0.00 0.00 91
20260901090455 57 300 0.0 0.0 0.00 0.00 0.00 91
20260901090253 57 300 0.0 0.0 0.00 0.00 0.00 91
20260901090051 57 300 0.0 0.0 0.00 0.00 0.00 91
20260901085849 56 300 0.0 0.0 0.00 0.00 0.00 91
20260901085647 57 300 0.0 0.0 0.00 0.00 0.00 91
20260901085445 57 300 0.0 0.0 0.00 0.00 0.00 91
20260901085243 57 300 0.0 0.0 0.00 0.00 0.00 91
20260901085041 57 300 0.0 0.0 0.00 0.00 0.00 91
20260901084840 57 300 0.0 0.0 0.00 0.00 0.00 91
20260901084638 57 300 0.0 0.0 0.00 0.00 0.00 91
20260901084436 57 300 0.0 0.0 0.00 0.00 0.00 91
20260901084234 57 300 0.0 1.7 0.00 0.00 0.00 91
20260901084032 57 300 0.0 1.7 0.00 0.00 0.00 91
20260901083830 57 300 0.0 1.7 0.00 0.00 0.00 91
20260901083628 57 309 0.9 1.7 0.00 0.00 0.00 91
20260901083426 57 316 0.9 1.7 0.00 0.00 0.00 91
20260901083224 57 312 1.7 0.0 0.00 0.00 0.00 91
20260901083022 57 272 0.0 0.0 0.00 0.00 0.00 91
20260901082619 57 272 0.0 0.0 0.00 0.00 0.00 90
20260901082417 57 272 0.0 0.0 0.00 0.00 0.00 90
20260901082215 58 272 0.0 0.0 0.00 0.00 0.00 90
20260901081811 58 272 0.0 0.0 0.00 0.00 0.00 90
20260901081609 58 272 0.0 0.0 0.00 0.00 0.00 91
20260901081407 58 272 0.0 0.0 0.00 0.00 0.00 91
20260901081003 58 272 0.0 0.0 0.00 0.00 0.00 91
20260901080803 58 272 0.0 0.0 0.00 0.00 0.00 91
20260901080600 58 272 0.0 0.0 0.00 0.00 0.00 91
20260901080358 58 272 0.0 0.0 0.00 0.00 0.00 90
20260901075954 58 272 0.0 0.0 0.00 0.00 0.00 90
20260901075752 58 272 0.0 0.0 0.00 0.00 0.00 90
20260901075550 58 272 0.0 0.0 0.00 0.00 0.00 90
20260901075348 57 272 0.0 0.0 0.00 0.00 0.00 90
20260901075148 57 272 0.0 0.0 0.00 0.00 0.00 90
20260901074944 57 272 0.0 0.0 0.00 0.00 0.00 90
20260901074744 57 272 0.0 0.0 0.00 0.00 0.00 90
20260901074542 57 272 0.0 0.0 0.00 0.00 0.00 90
20260901074340 57 272 0.0 0.0 0.00 0.00 0.00 89
20260901074138 57 272 0.0 0.0 0.00 0.00 0.00 89
20260901073733 58 272 0.0 0.0 0.00 0.00 0.00 89
20260901073533 58 272 0.0 0.0 0.00 0.00 0.00 89
20260901073329 58 272 0.0 0.0 0.00 0.00 0.00 89
20260901073127 58 272 0.0 0.0 0.00 0.00 0.00 89
20260901072925 58 272 0.0 0.0 0.00 0.00 0.00 89
20260901072723 58 272 0.0 0.0 0.00 0.00 0.00 89
20260901072521 58 272 0.0 0.0 0.00 0.00 0.00 89
20260901072320 58 272 0.0 0.0 0.00 0.00 0.00 89
20260901072118 59 272 0.0 0.0 0.00 0.00 0.00 89
20260901071916 59 272 0.0 0.0 0.00 0.00 0.00 90
20260901071714 59 272 0.0 0.0 0.00 0.00 0.00 89
20260901071512 59 272 0.0 0.0 0.00 0.00 0.00 89
20260901071310 59 272 0.0 0.0 0.00 0.00 0.00 89
20260901071108 59 272 0.0 0.0 0.00 0.00 0.00 89
20260901070906 59 272 0.0 0.0 0.00 0.00 0.00 89
20260901070704 59 272 0.0 0.0 0.00 0.00 0.00 89
20260901070301 59 272 0.0 0.0 0.00 0.00 0.00 89
20260901070059 59 272 0.0 0.0 0.00 0.00 0.00 89
20260901065655 59 272 0.0 0.0 0.00 0.00 0.00 88
20260901065453 59 272 0.0 0.0 0.00 0.00 0.00 88
20260901065251 59 272 0.0 0.0 0.00 0.00 0.00 88
20260901065051 59 272 0.0 0.0 0.00 0.00 0.00 88
20260901064847 59 272 0.0 0.0 0.00 0.00 0.00 88
20260901064645 59 272 0.0 0.0 0.00 0.00 0.00 88
20260901064443 59 272 0.0 0.0 0.00 0.00 0.00 88
20260901064242 59 272 0.0 0.0 0.00 0.00 0.00 88
20260901064040 59 272 0.0 0.0 0.00 0.00 0.00 88
20260901063838 59 272 0.0 0.0 0.00 0.00 0.00 88
20260901063636 59 272 0.0 0.0 0.00 0.00 0.00 88
20260901063434 59 272 0.0 0.0 0.00 0.00 0.00 88
20260901063232 59 272 0.0 0.0 0.00 0.00 0.00 88
20260901063030 60 272 0.0 0.0 0.00 0.00 0.00 88
20260901062828 59 272 0.0 0.0 0.00 0.00 0.00 88
20260901062626 59 272 0.0 0.0 0.00 0.00 0.00 88
20260901062424 59 272 0.0 0.0 0.00 0.00 0.00 88
20260901062222 60 272 0.0 0.0 0.00 0.00 0.00 87
20260901062021 60 272 0.0 0.0 0.00 0.00 0.00 87
20260901061617 60 272 0.0 0.0 0.00 0.00 0.00 87
20260901061417 60 272 0.0 0.0 0.00 0.00 0.00 87
20260901061213 60 272 0.0 0.0 0.00 0.00 0.00 87
20260901061011 60 272 0.0 0.0 0.00 0.00 0.00 87
20260901060809 60 272 0.0 0.0 0.00 0.00 0.00 87
20260901060609 60 272 0.0 0.0 0.00 0.00 0.00 87
20260901060405 60 272 0.0 0.0 0.00 0.00 0.00 87
20260901060203 60 272 0.0 0.0 0.00 0.00 0.00 87
20260901055800 60 272 0.0 0.0 0.00 0.00 0.00 87
20260901055558 60 272 0.0 0.0 0.00 0.00 0.00 87
20260901055357 60 272 0.0 0.0 0.00 0.00 0.00 86
20260901055158 60 272 0.0 0.0 0.00 0.00 0.00 86
20260901054952 60 272 0.0 0.0 0.00 0.00 0.00 86
20260901054750 61 272 0.0 0.0 0.00 0.00 0.00 86
20260901054548 61 272 0.0 0.0 0.00 0.00 0.00 86
20260901054346 61 272 0.0 0.0 0.00 0.00 0.00 85
20260901054144 61 272 0.0 0.0 0.00 0.00 0.00 85
20260901053942 61 272 0.0 0.0 0.00 0.00 0.00 85
20260901053741 61 272 0.0 0.0 0.00 0.00 0.00 85
20260901053337 62 272 0.0 0.0 0.00 0.00 0.00 85
20260901052933 62 272 0.0 0.0 0.00 0.00 0.00 85
20260901052731 62 272 0.0 0.0 0.00 0.00 0.00 85
20260901052529 62 272 0.0 0.0 0.00 0.00 0.00 85
20260901052327 62 272 0.0 0.0 0.00 0.00 0.00 85
20260901052125 62 272 0.0 0.0 0.00 0.00 0.00 85
20260901051923 62 272 0.0 0.0 0.00 0.00 0.00 84
20260901051721 62 272 0.0 0.0 0.00 0.00 0.00 84
20260901051520 62 272 0.0 0.0 0.00 0.00 0.00 84
20260901051318 62 272 0.0 0.0 0.00 0.00 0.00 84
20260901051116 62 272 0.0 0.0 0.00 0.00 0.00 83
20260901050914 63 272 0.0 0.0 0.00 0.00 0.00 83
20260901050712 63 272 0.0 0.0 0.00 0.00 0.00 83
20260901050510 63 272 0.0 0.0 0.00 0.00 0.00 83
20260901050308 63 272 0.0 0.0 0.00 0.00 0.00 83
20260901050106 63 272 0.0 0.0 0.00 0.00 0.00 83
20260901045904 63 272 0.0 0.0 0.00 0.00 0.00 83
20260901045702 63 272 0.0 0.0 0.00 0.00 0.00 84
20260901045500 63 272 0.0 0.0 0.00 0.00 0.00 83
20260901045259 64 272 0.0 0.0 0.00 0.00 0.00 84
20260901045057 64 272 0.0 0.0 0.00 0.00 0.00 83
20260901044855 64 272 0.0 0.0 0.00 0.00 0.00 83
20260901044653 64 272 0.0 0.9 0.00 0.00 0.00 83
20260901044451 64 272 0.0 0.9 0.00 0.00 0.00 83
20260901044249 64 272 0.0 0.9 0.00 0.00 0.00 83
20260901044047 64 272 0.0 2.6 0.00 0.00 0.00 82
20260901043845 64 272 0.0 2.6 0.00 0.00 0.00 82
20260901043643 64 286 1.7 0.0 0.00 0.00 0.00 82
20260901043442 64 271 0.0 0.0 0.00 0.00 0.00 82
20260901043240 64 271 0.0 0.0 0.00 0.00 0.00 81
20260901043038 64 271 0.0 0.0 0.00 0.00 0.00 80
20260901042636 64 271 0.0 0.0 0.00 0.00 0.00 80
20260901042432 65 271 0.0 0.0 0.00 0.00 0.00 80
20260901042230 65 271 0.0 0.9 0.00 0.00 0.00 79
20260901042028 65 271 0.0 0.9 0.00 0.00 0.00 79
20260901041826 65 271 0.0 0.9 0.00 0.00 0.00 79
20260901041221 65 278 1.7 0.0 0.00 0.00 0.00 79
20260901041019 65 278 0.0 0.0 0.00 0.00 0.00 79
20260901040817 65 278 0.0 0.0 0.00 0.00 0.00 78
20260901040615 65 278 0.0 0.0 0.00 0.00 0.00 78
20260901040413 65 278 0.0 0.0 0.00 0.00 0.00 78
20260901040211 65 278 0.0 0.0 0.00 0.00 0.00 78
20260901040009 65 278 0.0 0.0 0.00 0.00 0.00 78
20260901035807 65 278 0.0 0.0 0.00 0.00 0.00 77
20260901035605 65 278 0.0 0.0 0.00 0.00 0.00 78
20260901035403 65 278 0.0 0.0 0.00 0.00 0.00 77
20260901035201 65 278 0.0 3.5 0.00 0.00 0.00 77
20260901035000 66 278 0.0 3.5 0.00 0.00 0.00 77
20260901034758 66 278 0.0 3.5 0.00 0.00 0.00 77
20260901034556 66 281 0.0 0.9 0.00 0.00 0.00 77
20260901034354 66 278 3.5 0.9 0.00 0.00 0.00 77
20260901034152 66 251 0.0 0.0 0.00 0.00 0.00 76
20260901033950 66 251 0.0 0.0 0.00 0.00 0.00 75
20260901033748 66 251 0.0 0.0 0.00 0.00 0.00 75
20260901033546 66 251 0.0 0.0 0.00 0.00 0.00 75
20260901033344 66 251 0.0 0.0 0.00 0.00 0.00 75
20260901033142 66 251 0.0 0.0 0.00 0.00 0.00 75
20260901032941 67 251 0.0 0.0 0.00 0.00 0.00 75
20260901032739 67 251 0.0 0.0 0.00 0.00 0.00 74
20260901032537 67 251 0.0 0.0 0.00 0.00 0.00 73
20260901032335 67 251 0.0 0.0 0.00 0.00 0.00 73
20260901032133 67 251 0.0 0.0 0.00 0.00 0.00 73
20260901031931 67 251 0.0 0.0 0.00 0.00 0.00 73
20260901031729 67 251 0.0 0.0 0.00 0.00 0.00 72
20260901031527 67 251 0.0 0.0 0.00 0.00 0.00 72
20260901031325 67 251 0.0 0.0 0.00 0.00 0.00 72
20260901031131 67 251 0.0 0.0 0.00 0.00 0.00 72
20260901031123 67 251 0.0 0.0 0.00 0.00 0.00 72
20260901030921 68 251 0.0 0.0 0.00 0.00 0.00 72
20260901030719 68 251 0.0 0.0 0.00 0.00 0.00 72
20260901030518 68 251 0.0 0.0 0.00 0.00 0.00 72
20260901030316 68 251 0.0 0.0 0.00 0.00 0.00 71
20260901030114 68 251 0.0 0.0 0.00 0.00 0.00 71
20260901025912 68 251 0.0 0.0 0.00 0.00 0.00 71
20260901025710 68 251 0.0 0.0 0.00 0.00 0.00 70
20260901025508 68 251 0.0 0.0 0.00 0.00 0.00 71
20260901025306 68 251 0.0 0.0 0.00 0.00 0.00 70
20260901025104 68 251 0.0 2.6 0.00 0.00 0.00 70
20260901024902 68 251 0.0 2.6 0.00 0.00 0.00 70
20260901024702 68 251 0.0 2.6 0.00 0.00 0.00 70
20260901024459 68 292 1.7 2.6 0.00 0.00 0.00 70
20260901024257 68 303 2.6 2.6 0.00 0.00 0.00 69
20260901023853 69 208 0.0 0.0 0.00 0.00 0.00 68
20260901023651 69 208 0.0 2.6 0.00 0.00 0.00 68
20260901023449 69 208 0.0 2.6 0.00 0.00 0.00 68
20260901023247 69 208 0.0 2.6 0.00 0.00 0.00 67
20260901023047 69 222 0.0 5.2 0.00 0.00 0.00 67
20260901022843 70 229 0.0 5.2 0.00 0.00 0.00 68
20260901022641 70 285 2.6 6.1 0.00 0.00 0.00 67
20260901022440 70 282 3.5 6.1 0.00 0.00 0.00 67
20260901022237 70 268 2.6 5.2 0.00 0.00 0.00 66
20260901022035 70 253 3.5 5.2 0.00 0.00 0.00 66
20260901021833 70 277 1.7 5.2 0.00 0.00 0.00 65
20260901021631 71 279 3.5 7.8 0.00 0.00 0.00 65
20260901021429 71 265 4.3 7.8 0.00 0.00 0.00 64
20260901021227 71 281 2.6 7.8 0.00 0.00 0.00 64
20260901020824 71 274 4.3 7.8 0.00 0.00 0.00 63
20260901020622 71 288 2.6 7.0 0.00 0.00 0.00 63
20260901020420 72 292 3.5 7.0 0.00 0.00 0.00 62
20260901020218 72 270 4.3 7.0 0.00 0.00 0.00 62
20260901020016 72 265 3.5 7.0 0.00 0.00 0.00 62
20260901015814 72 278 5.2 7.0 0.00 0.00 0.00 62
20260901015612 72 265 7.0 6.1 0.00 0.00 0.00 60
20260901015410 73 268 2.6 6.1 0.00 0.00 0.00 60
20260901015208 73 284 3.5 7.0 0.00 0.00 0.00 60
20260901015007 73 201 0.9 7.0 0.00 0.00 0.00 60
20260901014807 73 277 1.7 7.0 0.00 0.00 0.00 59
20260901014603 73 260 4.3 6.1 0.00 0.00 0.00 59
20260901014400 73 277 4.3 6.1 0.00 0.00 0.00 59
20260901014158 74 262 5.2 7.8 0.00 0.00 0.00 59
20260901013956 73 262 2.6 7.8 0.00 0.00 0.00 59
20260901013754 74 282 3.5 7.8 0.00 0.00 0.00 59
20260901013552 74 267 5.2 7.8 0.00 0.00 0.00 58
20260901013148 74 265 6.1 8.7 0.00 0.00 0.00 58
20260901012946 74 270 4.3 8.7 0.00 0.00 0.00 57
20260901012746 74 279 3.5 7.8 0.00 0.00 0.00 58
20260901012544 74 268 7.0 7.8 0.00 0.00 0.00 57
20260901012340 75 261 5.2 7.8 0.00 0.00 0.00 57
20260901012140 75 244 5.2 7.8 0.00 0.00 0.00 57
20260901011936 75 255 5.2 7.8 0.00 0.00 0.00 57
20260901011736 75 260 4.3 7.8 0.00 0.00 0.00 57
20260901011533 75 277 7.0 7.8 0.00 0.00 0.00 57
20260901011131 75 262 6.1 10.4 0.00 0.00 0.00 57
20260901010927 75 241 7.0 10.4 0.00 0.00 0.00 57
20260901010726 75 286 6.1 11.3 0.00 0.00 0.00 56
20260901005917 75 271 8.7 10.4 0.00 0.00 0.00 56
20260901005715 75 254 6.1 10.4 0.00 0.00 0.00 56
20260901005513 76 270 7.0 10.4 0.00 0.00 0.00 55
20260901005311 76 281 4.3 10.4 0.00 0.00 0.00 55
20260901005109 76 282 5.2 10.4 0.00 0.00 0.00 55
20260901004907 76 279 6.1 10.4 0.00 0.00 0.00 55
20260901004707 76 281 0.9 11.3 0.00 0.00 0.00 55
20260901004503 76 265 7.0 11.3 0.00 0.00 0.00 54
20260901004301 76 271 7.8 11.3 0.00 0.00 0.00 54
20260901004059 76 267 9.6 11.3 0.00 0.00 0.00 56
20260901003857 76 267 7.0 11.3 0.00 0.00 0.00 55
20260901003656 76 271 7.0 13.9 0.00 0.00 0.00 55
20260901003454 76 265 8.7 13.9 0.00 0.00 0.00 56
20260901003253 76 255 6.1 13.9 0.00 0.00 0.00 56
20260901003052 76 254 7.8 12.2 0.00 0.00 0.00 56
20260901002848 76 265 8.7 12.2 0.00 0.00 0.00 55
20260901002647 77 261 10.4 12.2 0.00 0.00 0.00 55
20260901002444 76 267 7.8 12.2 0.00 0.00 0.00 56
20260901002242 77 261 6.1 13.9 0.00 0.00 0.00 55
20260901002042 77 250 6.1 13.9 0.00 0.00 0.00 55
20260901001838 77 274 10.4 13.9 0.00 0.00 0.00 54
20260901001436 77 264 6.1 15.6 0.00 0.00 0.00 56
20260901001234 77 255 9.6 13.0 0.00 0.00 0.00 56
20260901001030 77 275 13.9 13.0 0.00 0.00 0.00 55
20260901000828 77 253 7.8 13.0 0.00 0.00 0.00 55
20260901000626 77 246 7.0 14.8 0.00 0.00 0.00 55
20260901000225 77 251 11.3 13.0 0.00 0.00 0.00 54
20260901000023 78 260 10.4 13.0 0.00 0.00 0.00 53
20260831235820 78 250 6.1 13.0 0.00 0.00 0.00 53
20260831235618 78 270 8.7 14.8 0.00 0.00 0.00 53
20260831235415 78 262 10.4 14.8 0.00 0.00 0.00 53
20260831235213 78 254 9.6 13.9 0.00 0.00 0.00 53
20260831235013 79 264 7.8 13.9 0.00 0.00 0.00 53
20260831234809 78 257 6.1 13.9 0.00 0.00 0.00 54
20260831234608 78 268 8.7 15.6 0.00 0.00 0.00 54
20260831234405 78 265 7.0 15.6 0.00 0.00 0.00 54
20260831234205 78 275 13.0 13.9 0.00 0.00 0.00 54
20260831234001 79 264 10.4 13.9 0.00 0.00 0.00 53
20260831233759 79 262 9.6 13.9 0.00 0.00 0.00 54
20260831233357 79 248 11.3 13.0 0.00 0.00 0.00 53
20260831233155 79 255 3.5 13.9 0.00 0.00 0.00 53
20260831232951 79 279 6.1 13.9 0.00 0.00 0.00 54
20260831232749 79 272 12.2 13.9 0.00 0.00 0.00 53
20260831232548 79 248 11.3 12.2 0.00 0.00 0.00 52
20260831232348 80 251 10.4 12.2 0.00 0.00 0.00 51
20260831232144 80 265 4.3 11.3 0.00 0.00 0.00 51
20260831231941 80 258 10.4 11.3 0.00 0.00 0.00 51
20260831231741 80 251 7.0 13.0 0.00 0.00 0.00 51
20260831231540 80 277 7.8 13.0 0.00 0.00 0.00 52
20260831231336 79 267 7.8 13.0 0.00 0.00 0.00 54
20260831231135 80 277 3.5 12.2 0.00 0.00 0.00 54
20260831230933 80 258 9.6 12.2 0.00 0.00 0.00 53
20260831230732 80 260 9.6 13.9 0.00 0.00 0.00 53
20260831230530 80 264 7.0 13.9 0.00 0.00 0.00 54
20260831230328 80 251 7.8 13.9 0.00 0.00 0.00 53
20260831230126 80 277 8.7 13.9 0.00 0.00 0.00 53
20260831225720 80 272 7.8 14.8 0.00 0.00 0.00 54
20260831225518 80 272 9.6 14.8 0.00 0.00 0.00 54
20260831225318 80 254 8.7 14.8 0.00 0.00 0.00 54
20260831225114 79 254 9.6 12.2 0.00 0.00 0.00 54
20260831224912 80 233 6.1 12.2 0.00 0.00 0.00 54
20260831224514 80 260 9.6 12.2 0.00 0.00 0.00 53
20260831224308 80 255 7.0 12.2 0.00 0.00 0.00 51
20260831223903 80 248 5.2 10.4 0.00 0.00 0.00 51
20260831223703 80 239 8.7 12.2 0.00 0.00 0.00 51
20260831223501 80 255 7.0 12.2 0.00 0.00 0.00 51
20260831223258 80 268 9.6 12.2 0.00 0.00 0.00 49
20260831223057 80 272 4.3 13.9 0.00 0.00 0.00 51
20260831222853 80 271 5.2 13.9 0.00 0.00 0.00 51
20260831222651 80 250 7.8 11.3 0.00 0.00 0.00 49
20260831222450 81 247 7.8 11.3 0.00 0.00 0.00 50
20260831222249 81 264 7.0 11.3 0.00 0.00 0.00 51
20260831221843 80 281 7.8 13.0 0.00 0.00 0.00 52
20260831221641 80 254 7.0 17.4 0.00 0.00 0.00 52
20260831221441 80 267 7.8 17.4 0.00 0.00 0.00 53
20260831221239 79 255 12.2 16.5 0.00 0.00 0.00 51
20260831221036 80 275 15.6 16.5 0.00 0.00 0.00 52
20260831220835 80 233 10.4 16.5 0.00 0.00 0.00 53
20260831220633 80 270 9.6 13.9 0.00 0.00 0.00 52
20260831220431 80 271 13.0 13.9 0.00 0.00 0.00 52
20260831220227 81 253 6.1 12.2 0.00 0.00 0.00 53
20260831220027 80 255 10.4 12.2 0.00 0.00 0.00 54
20260831215825 80 279 13.9 12.2 0.00 0.00 0.00 52
20260831215622 80 278 7.8 13.9 0.00 0.00 0.00 53
20260831215219 80 270 7.8 14.8 0.00 0.00 0.00 54
20260831215016 80 265 7.0 14.8 0.00 0.00 0.00 53
20260831214815 80 246 10.4 14.8 0.00 0.00 0.00 52
20260831214412 80 267 7.8 12.2 0.00 0.00 0.00 53
20260831214007 81 265 7.0 13.0 0.00 0.00 0.00 52
20260831213804 81 255 9.6 13.0 0.00 0.00 0.00 52
20260831213604 81 240 7.0 11.3 0.00 0.00 0.00 52
20260831213402 81 291 7.0 11.3 0.00 0.00 0.00 52
20260831212956 81 268 9.6 12.2 0.00 0.00 0.00 53
20260831212755 80 255 9.6 12.2 0.00 0.00 0.00 55
20260831212554 80 251 7.8 14.8 0.00 0.00 0.00 55
20260831212352 80 271 4.3 14.8 0.00 0.00 0.00 55
20260831212150 80 264 12.2 13.9 0.00 0.00 0.00 54
20260831211948 80 236 9.6 13.9 0.00 0.00 0.00 55
20260831211746 80 277 11.3 13.0 0.00 0.00 0.00 55
20260831211544 80 275 7.0 13.0 0.00 0.00 0.00 56
20260831211343 80 264 6.1 13.0 0.00 0.00 0.00 56
20260831211140 80 270 8.7 16.5 0.00 0.00 0.00 55
20260831210938 80 236 3.5 16.5 0.00 0.00 0.00 56
20260831210736 80 268 7.8 13.9 0.00 0.00 0.00 56
20260831210535 80 260 11.3 13.9 0.00 0.00 0.00 55
20260831210331 80 254 7.8 13.9 0.00 0.00 0.00 56
20260831210132 80 291 7.0 16.5 0.00 0.00 0.00 56
20260831205929 80 268 10.4 16.5 0.00 0.00 0.00 55
20260831205725 80 274 5.2 15.6 0.00 0.00 0.00 56
20260831205523 79 279 8.7 15.6 0.00 0.00 0.00 56
20260831205121 79 260 14.8 13.9 0.00 0.00 0.00 57
20260831204919 80 275 10.4 13.9 0.00 0.00 0.00 56
20260831204717 80 272 7.0 17.4 0.00 0.00 0.00 56
20260831204515 80 274 6.1 17.4 0.00 0.00 0.00 56
20260831204313 80 278 10.4 17.4 0.00 0.00 0.00 55
20260831204112 80 270 10.4 13.9 0.00 0.00 0.00 55
20260831203909 80 261 11.3 13.9 0.00 0.00 0.00 54
20260831203707 81 258 8.7 13.9 0.00 0.00 0.00 54
20260831203101 80 271 7.8 15.6 0.00 0.00 0.00 55
20260831202859 80 260 11.3 15.6 0.00 0.00 0.00 55
20260831202658 80 278 7.8 13.9 0.00 0.00 0.00 54
20260831202254 80 282 10.4 13.9 0.00 0.00 0.00 54
20260831201848 81 243 6.1 12.2 0.00 0.00 0.00 54
20260831201648 80 260 11.3 12.2 0.00 0.00 0.00 54
20260831201244 81 257 9.6 12.2 0.00 0.00 0.00 53
20260831201042 81 272 6.1 12.2 0.00 0.00 0.00 52
20260831200840 81 268 7.8 12.2 0.00 0.00 0.00 52
20260831200638 81 255 6.1 13.9 0.00 0.00 0.00 52
20260831200436 81 281 5.2 13.9 0.00 0.00 0.00 52
20260831200234 81 237 8.7 13.0 0.00 0.00 0.00 52
20260831200032 81 275 7.0 13.0 0.00 0.00 0.00 52
20260831195830 81 268 7.8 13.0 0.00 0.00 0.00 52
20260831195626 80 246 7.0 12.2 0.00 0.00 0.00 52
20260831195224 80 237 8.7 13.0 0.00 0.00 0.00 52
20260831195022 80 237 7.8 13.0 0.00 0.00 0.00 53
20260831194818 80 234 7.0 13.0 0.00 0.00 0.00 53
20260831194616 80 278 7.0 13.9 0.00 0.00 0.00 53
20260831194416 80 254 7.8 13.9 0.00 0.00 0.00 52
20260831194214 80 265 9.6 13.9 0.00 0.00 0.00 52
20260831194012 81 260 10.4 13.9 0.00 0.00 0.00 51
20260831193810 80 262 4.3 13.9 0.00 0.00 0.00 52
20260831193607 80 246 8.7 14.8 0.00 0.00 0.00 52
20260831193405 80 261 7.0 14.8 0.00 0.00 0.00 53
20260831193205 80 246 9.6 14.8 0.00 0.00 0.00 53
20260831193003 80 253 7.8 14.8 0.00 0.00 0.00 52
20260831192355 81 275 7.8 13.0 0.00 0.00 0.00 51
20260831191549 80 285 6.1 14.8 0.00 0.00 0.00 51
20260831191347 80 246 9.6 14.8 0.00 0.00 0.00 51
20260831191145 80 265 7.8 14.8 0.00 0.00 0.00 51
20260831190943 80 268 10.4 14.8 0.00 0.00 0.00 51
20260831190740 80 262 5.2 13.9 0.00 0.00 0.00 52
20260831190539 80 248 8.7 13.9 0.00 0.00 0.00 52
20260831190135 81 254 9.6 13.9 0.00 0.00 0.00 50
20260831185527 81 254 9.6 13.0 0.00 0.00 0.00 50
20260831185327 81 251 4.3 13.0 0.00 0.00 0.00 50
20260831185125 81 248 7.8 13.0 0.00 0.00 0.00 50
20260831184923 80 257 6.1 13.0 0.00 0.00 0.00 51
20260831184520 81 262 7.8 8.7 0.00 0.00 0.00 49
20260831184317 81 264 7.0 8.7 0.00 0.00 0.00 49
20260831184115 81 209 1.7 9.6 0.00 0.00 0.00 50
20260831183912 81 265 6.1 9.6 0.00 0.00 0.00 50
20260831183712 81 267 6.1 10.4 0.00 0.00 0.00 51
20260831183306 80 291 5.2 10.4 0.00 0.00 0.00 52
20260831183105 80 298 5.2 9.6 0.00 0.00 0.00 52
20260831182902 80 246 7.0 9.6 0.00 0.00 0.00 52
20260831182702 80 275 5.2 9.6 0.00 0.00 0.00 52
20260831182500 80 248 6.1 9.6 0.00 0.00 0.00 52
20260831182258 80 292 3.5 9.6 0.00 0.00 0.00 52
20260831182056 80 234 6.1 9.6 0.00 0.00 0.00 52
20260831181854 80 268 4.3 9.6 0.00 0.00 0.00 53
20260831181248 80 338 1.7 8.7 0.00 0.00 0.00 53
20260831181046 80 286 7.8 8.7 0.00 0.00 0.00 53
20260831180842 80 281 6.1 8.7 0.00 0.00 0.00 53
20260831180642 80 293 5.2 7.8 0.00 0.00 0.00 52
20260831180440 80 264 7.8 7.8 0.00 0.00 0.00 52
20260831180239 80 261 5.2 7.8 0.00 0.00 0.00 54
20260831180035 80 296 4.3 7.8 0.00 0.00 0.00 53
20260831175833 80 284 4.3 7.8 0.00 0.00 0.00 53
20260831175632 79 293 4.3 9.6 0.00 0.00 0.00 54
20260831175431 79 272 4.3 9.6 0.00 0.00 0.00 54
20260831175229 79 277 7.8 8.7 0.00 0.00 0.00 54
20260831174825 79 267 3.5 8.7 0.00 0.00 0.00 55
20260831174621 79 284 3.5 8.7 0.00 0.00 0.00 56
20260831174421 79 284 4.3 8.7 0.00 0.00 0.00 55
20260831174219 79 261 4.3 8.7 0.00 0.00 0.00 56
20260831174015 79 279 4.3 8.7 0.00 0.00 0.00 56
20260831173813 78 281 4.3 8.7 0.00 0.00 0.00 57
20260831173613 78 265 6.1 7.8 0.00 0.00 0.00 57
20260831173411 78 286 4.3 7.8 0.00 0.00 0.00 57
20260831173208 78 267 4.3 7.8 0.00 0.00 0.00 57
20260831173006 77 255 5.2 7.8 0.00 0.00 0.00 58
20260831172805 77 261 6.1 7.8 0.00 0.00 0.00 59
20260831172603 77 277 6.1 7.8 0.00 0.00 0.00 59
20260831172157 77 299 1.7 7.8 0.00 0.00 0.00 60
20260831171957 77 262 6.1 7.8 0.00 0.00 0.00 59
20260831171554 77 272 2.6 7.0 0.00 0.00 0.00 59
20260831171350 77 255 5.2 7.0 0.00 0.00 0.00 59
20260831171150 77 289 0.9 6.1 0.00 0.00 0.00 60
20260831170947 77 241 0.0 6.1 0.00 0.00 0.00 61
20260831170746 76 258 2.6 6.1 0.00 0.00 0.00 61
20260831170542 76 257 0.9 6.1 0.00 0.00 0.00 61
20260831170342 76 250 1.7 6.1 0.00 0.00 0.00 62
20260831170138 76 254 0.0 7.0 0.00 0.00 0.00 62
20260831165936 75 243 4.3 7.0 0.00 0.00 0.00 62
20260831165734 75 279 5.2 6.1 0.00 0.00 0.00 62
20260831165532 75 265 0.9 6.1 0.00 0.00 0.00 63
20260831165330 75 277 1.7 6.1 0.00 0.00 0.00 63
20260831165128 75 275 1.7 6.1 0.00 0.00 0.00 64
20260831164724 74 284 2.6 6.1 0.00 0.00 0.00 65
20260831164522 74 265 4.3 6.1 0.00 0.00 0.00 66
20260831164320 73 246 0.0 6.1 0.00 0.00 0.00 67
20260831164120 73 285 2.6 7.0 0.00 0.00 0.00 67
20260831163916 73 291 4.3 7.0 0.00 0.00 0.00 67
20260831163716 73 292 3.5 7.0 0.00 0.00 0.00 68
20260831163512 73 285 2.6 7.0 0.00 0.00 0.00 68
20260831163310 72 257 4.3 7.0 0.00 0.00 0.00 69
20260831162907 72 279 4.3 7.0 0.00 0.00 0.00 69
20260831162705 71 268 6.1 6.1 0.00 0.00 0.00 70
20260831162301 71 277 6.1 6.1 0.00 0.00 0.00 70
20260831162059 71 293 1.7 7.0 0.00 0.00 0.00 71
20260831161857 71 293 2.6 7.0 0.00 0.00 0.00 71
20260831161655 71 302 2.6 6.1 0.00 0.00 0.00 72
20260831161453 71 257 3.5 6.1 0.00 0.00 0.00 72
20260831161251 70 275 4.3 6.1 0.00 0.00 0.00 73
20260831160849 70 288 6.1 6.1 0.00 0.00 0.00 74
20260831160645 70 289 4.3 7.0 0.00 0.00 0.00 74
20260831160443 70 274 3.5 7.0 0.00 0.00 0.00 75
20260831160241 69 268 6.1 7.8 0.00 0.00 0.00 75
20260831160039 69 279 6.1 7.8 0.00 0.00 0.00 76
20260831155635 69 299 4.3 6.1 0.00 0.00 0.00 77
20260831155231 69 293 4.3 6.1 0.00 0.00 0.00 77
20260831155029 69 281 2.6 6.1 0.00 0.00 0.00 77
20260831154828 68 285 3.5 6.1 0.00 0.00 0.00 78
20260831154626 68 265 3.5 6.1 0.00 0.00 0.00 79
20260831154222 68 277 4.3 6.1 0.00 0.00 0.00 79
20260831154020 68 265 5.2 6.1 0.00 0.00 0.00 80
20260831153616 67 291 4.3 4.3 0.00 0.00 0.00 80
20260831153414 67 293 2.6 4.3 0.00 0.00 0.00 80
20260831153212 67 270 1.7 3.5 0.00 0.00 0.00 80
20260831153010 67 281 3.5 3.5 0.00 0.00 0.00 81
20260831152808 66 286 3.5 3.5 0.00 0.00 0.00 81
20260831152607 66 285 0.9 2.6 0.00 0.00 0.00 82
20260831152405 66 282 1.7 2.6 0.00 0.00 0.00 83
20260831152203 66 285 1.7 0.0 0.00 0.00 0.00 83
20260831152001 66 285 1.7 0.0 0.00 0.00 0.00 83
20260831151759 66 261 0.0 0.0 0.00 0.00 0.00 82
20260831151557 66 261 0.0 0.0 0.00 0.00 0.00 82
20260831151355 66 261 0.0 0.0 0.00 0.00 0.00 82
20260831150953 66 261 0.0 0.0 0.00 0.00 0.00 82
20260831150749 66 261 0.0 0.0 0.00 0.00 0.00 82
20260831150548 66 261 0.0 0.0 0.00 0.00 0.00 83
20260831150346 66 261 0.0 0.0 0.00 0.00 0.00 84
20260831150144 66 261 0.0 0.0 0.00 0.00 0.00 84
20260831145942 65 261 0.0 0.0 0.00 0.00 0.00 85
20260831145740 65 261 0.0 0.0 0.00 0.00 0.00 85
20260831145538 65 261 0.0 0.0 0.00 0.00 0.00 86
20260831145134 64 261 0.0 0.0 0.00 0.00 0.00 86
20260831144932 64 261 0.0 0.0 0.00 0.00 0.00 87
20260831144730 64 261 0.0 0.0 0.00 0.00 0.00 88
20260831144529 64 261 0.0 0.0 0.00 0.00 0.00 88
20260831144328 63 261 0.0 0.0 0.00 0.00 0.00 89
20260831143923 63 261 0.0 0.0 0.00 0.00 0.00 91
20260831143723 63 261 0.0 0.0 0.00 0.00 0.00 91
20260831143519 62 261 0.0 0.0 0.00 0.00 0.00 92
20260831143317 62 261 0.0 0.0 0.00 0.00 0.00 92
20260831143117 62 261 0.0 0.0 0.00 0.00 0.00 92
20260831142713 62 261 0.0 0.0 0.00 0.00 0.00 93
20260831142307 62 261 0.0 0.0 0.00 0.00 0.00 93
20260831142106 61 261 0.0 0.0 0.00 0.00 0.00 93
20260831141906 61 261 0.0 0.0 0.00 0.00 0.00 93
20260831141500 61 261 0.0 0.0 0.00 0.00 0.00 93
20260831141300 61 261 0.0 0.0 0.00 0.00 0.00 93
20260831140856 61 261 0.0 0.0 0.00 0.00 0.00 93
20260831140652 60 261 0.0 0.0 0.00 0.00 0.00 93
20260831140452 60 261 0.0 0.0 0.00 0.00 0.00 93
20260831140250 60 261 0.0 0.0 0.00 0.00 0.00 93
20260831140047 60 261 0.0 0.0 0.00 0.00 0.00 93
20260831135845 60 261 0.0 0.0 0.00 0.00 0.00 93
20260831135643 60 261 0.0 0.0 0.00 0.00 0.00 93
20260831135441 60 261 0.0 0.0 0.00 0.00 0.00 93
20260831135239 60 261 0.0 0.0 0.00 0.00 0.00 93
20260831135039 60 261 0.0 0.0 0.00 0.00 0.00 93
20260831134837 60 261 0.0 0.0 0.00 0.00 0.00 93
20260831134635 60 261 0.0 0.0 0.00 0.00 0.00 93
20260831134433 59 261 0.0 0.0 0.00 0.00 0.00 93
20260831134231 59 261 0.0 0.0 0.00 0.00 0.00 93
20260831134028 59 261 0.0 0.0 0.00 0.00 0.00 93
20260831133826 59 261 0.0 0.0 0.00 0.00 0.00 93
20260831133624 59 261 0.0 0.0 0.00 0.00 0.00 93
20260831133423 59 261 0.0 0.0 0.00 0.00 0.00 93
20260831133222 60 261 0.0 0.0 0.00 0.00 0.00 92
20260831132816 60 261 0.0 0.0 0.00 0.00 0.00 92
20260831132614 60 261 0.0 0.0 0.00 0.00 0.00 92
20260831132412 60 261 0.0 0.0 0.00 0.00 0.00 92
20260831132210 60 261 0.0 0.0 0.00 0.00 0.00 92
20260831131807 60 261 0.0 0.0 0.00 0.00 0.00 92
20260831131605 61 261 0.0 0.0 0.00 0.00 0.00 92
20260831131201 61 261 0.0 0.0 0.00 0.00 0.00 92
20260831130959 61 261 0.0 0.0 0.00 0.00 0.00 92
20260831130757 61 261 0.0 0.0 0.00 0.00 0.00 92
20260831130555 61 261 0.0 0.0 0.00 0.00 0.00 92
20260831130353 61 261 0.0 0.0 0.00 0.00 0.00 92
20260831130151 61 261 0.0 0.0 0.00 0.00 0.00 92
20260831125949 61 261 0.0 0.0 0.00 0.00 0.00 92
20260831125747 61 261 0.0 0.0 0.00 0.00 0.00 92
20260831125546 61 261 0.0 0.0 0.00 0.00 0.00 92
20260831125142 61 261 0.0 0.0 0.00 0.00 0.00 92
20260831124940 61 261 0.0 0.0 0.00 0.00 0.00 92
20260831124738 61 261 0.0 0.0 0.00 0.00 0.00 92
20260831124334 61 261 0.0 0.0 0.00 0.00 0.00 92
20260831123930 61 261 0.0 0.0 0.00 0.00 0.00 92
20260831123730 61 261 0.0 0.0 0.00 0.00 0.00 92
20260831123527 61 261 0.0 0.0 0.00 0.00 0.00 92